Weather History for Moncks Corner, SC

Change the Weather History Date:

Wednesday, December 12, 2012

  Actual Average (KCHS) Record (KCHS)
Temperature  
Mean Temperature 52 °F 52 °F  
Max Temperature 60 °F 62 °F 79 °F (1971)
Min Temperature 44 °F 41 °F 14 °F (1962)
Degree Days  
Heating Degree Days 13 14  
Month to date heating degree days 150  
Since 1 July heating degree days 442  
Cooling Degree Days 0 0  
Month to date cooling degree days 0  
Year to date cooling degree days 2297  
Growing Degree Days 2 (Base 50)    
Moisture  
Dew Point 49 °F    
Average Humidity 90    
Maximum Humidity 94    
Minimum Humidity 82    
Precipitation  
Precipitation 0.39 in 0.10 in 1.84 in (1986)
Month to date precipitation 1.11  
Year to date precipitation 49.03  
Sea Level Pressure  
Sea Level Pressure 30.15 in    
Wind  
Wind Speed 6 mph (NNE)    
Max Wind Speed 14 mph    
Max Gust Speed 20 mph    
Visibility 8 miles    
Events Rain    
T = Trace of Precipitation, MM = Missing Value Source: NWS Daily Summary

Daily Weather History Graph

Daily Weather History Graph

Search for Another Location

Airport:

Trip Planner

Search our weather history database for the weather conditions in past years. The results will help you decide how hot, cold, wet, or windy it might be!

Date:

Astronomy

Dec. 12, 2012 Rise Set
Actual Time 7:14 AM EST 5:13 PM EST
Civil Twilight 6:47 AM EST 5:41 PM EST
Nautical Twilight 6:16 AM EST 6:12 PM EST
Astronomical Twilight 5:45 AM EST 6:42 PM EST
Moon 6:18 AM EST (12/12) 4:48 PM EST (12/12)
Length of Visible Light 10h 54m
Length of Day
9h 59m
Waning Crescent, 1% of the Moon is Illuminated
Dec 12
Waning Crescent
Dec 13
New
Dec 20
First Quarter
Dec 28
Full
Jan 4
Last Quarter

Hourly Weather History & Observations

Time (EST) Temp. Windchill Dew Point Humidity Pressure Visibility Wind Dir Wind Speed Gust Speed Precip Events Conditions
12:15 AM 60.8 °F - 59.0 °F 94% 30.07 in 7.0 mi Calm Calm - N/A   Unknown
12:35 AM 60.8 °F - 59.0 °F 94% 30.08 in 7.0 mi NW 3.5 mph - N/A   Unknown
12:55 AM 60.8 °F - 57.2 °F 88% 30.08 in 10.0 mi NNW 3.5 mph - N/A   Unknown
1:15 AM 60.8 °F - 55.4 °F 82% 30.08 in 7.0 mi North 4.6 mph - N/A   Unknown
1:35 AM 59.0 °F - 55.4 °F 88% 30.08 in 10.0 mi Calm Calm - N/A   Unknown
1:55 AM 59.0 °F - 55.4 °F 88% 30.08 in 10.0 mi North 3.5 mph - N/A   Unknown
2:15 AM 59.0 °F - 55.4 °F 88% 30.09 in 10.0 mi NNW 3.5 mph - N/A   Unknown
2:55 AM 59.0 °F - 55.4 °F 88% 30.08 in 10.0 mi North 3.5 mph - N/A   Unknown
3:15 AM 59.0 °F - 53.6 °F 82% 30.09 in 10.0 mi North 4.6 mph - N/A   Unknown
3:35 AM 57.2 °F - 51.8 °F 82% 30.10 in 10.0 mi North 8.1 mph - N/A   Unknown
3:55 AM 57.2 °F - 51.8 °F 82% 30.10 in 10.0 mi North 5.8 mph - N/A   Unknown
4:15 AM 57.2 °F - 51.8 °F 82% 30.11 in 10.0 mi North 5.8 mph - N/A   Unknown
4:55 AM 55.4 °F - 51.8 °F 88% 30.10 in 7.0 mi NNE 5.8 mph - N/A   Unknown
5:15 AM 53.6 °F - 51.8 °F 94% 30.10 in 10.0 mi NNE 6.9 mph - N/A   Unknown
5:35 AM 53.6 °F - 50.0 °F 88% 30.11 in 10.0 mi North 6.9 mph - N/A   Unknown
5:55 AM 53.6 °F - 50.0 °F 88% 30.11 in 10.0 mi North 5.8 mph - N/A   Unknown
6:15 AM 53.6 °F - 50.0 °F 88% 30.11 in 7.0 mi NE 5.8 mph - N/A   Unknown
6:55 AM 53.6 °F - 50.0 °F 88% 30.12 in 7.0 mi NE 5.8 mph - N/A   Unknown
7:15 AM 53.6 °F - 48.2 °F 82% 30.13 in 10.0 mi North 5.8 mph - N/A   Unknown
7:35 AM 53.6 °F - 50.0 °F 88% 30.12 in 7.0 mi North 8.1 mph - N/A   Unknown
7:55 AM 53.6 °F - 50.0 °F 88% 30.14 in 10.0 mi North 6.9 mph - N/A   Unknown
8:15 AM 53.6 °F - 50.0 °F 88% 30.16 in 5.0 mi NNE 4.6 mph - N/A   Mist
8:35 AM 53.6 °F - 50.0 °F 88% 30.14 in 7.0 mi NNE 6.9 mph - N/A   Unknown
8:55 AM 53.6 °F - 50.0 °F 88% 30.16 in 7.0 mi NNE 5.8 mph - 0.01 in Rain Light Rain
9:15 AM 53.6 °F - 50.0 °F 88% 30.17 in 7.0 mi NNE 6.9 mph - 0.01 in Rain Rain
9:35 AM 53.6 °F - 51.8 °F 94% 30.17 in 5.0 mi NNE 3.5 mph - 0.01 in Rain Light Rain
9:55 AM 53.6 °F - 51.8 °F 94% 30.19 in 4.0 mi NNE 4.6 mph - 0.01 in Rain Light Rain
10:15 AM 53.6 °F - 51.8 °F 94% 30.16 in 3.0 mi NE 8.1 mph - N/A   Mist
10:35 AM 53.6 °F - 51.8 °F 94% 30.16 in 5.0 mi NE 8.1 mph - N/A Rain Light Rain
10:55 AM 53.6 °F - 51.8 °F 94% 30.16 in 5.0 mi NE 9.2 mph - N/A   Mist
11:15 AM 53.6 °F - 51.8 °F 94% 30.17 in 7.0 mi NNE 6.9 mph - N/A   Unknown
11:35 AM 53.6 °F - 51.8 °F 94% 30.17 in 4.0 mi NNE 6.9 mph - N/A   Mist
11:55 AM 53.6 °F - 50.0 °F 88% 30.17 in 4.0 mi North 8.1 mph - N/A   Mist
12:15 PM 53.6 °F - 50.0 °F 88% 30.16 in 7.0 mi NNE 9.2 mph - N/A   Unknown
12:35 PM 51.8 °F - 50.0 °F 94% 30.14 in 4.0 mi NNE 9.2 mph - N/A   Mist
12:55 PM 51.8 °F - 50.0 °F 94% 30.14 in 5.0 mi North 6.9 mph - N/A   Mist
1:15 PM 51.8 °F - 50.0 °F 94% 30.15 in 5.0 mi NNE 5.8 mph - N/A   Mist
1:35 PM 51.8 °F - 48.2 °F 88% 30.16 in 5.0 mi NNE 9.2 mph - N/A   Mist
1:55 PM 51.8 °F - 48.2 °F 88% 30.16 in 5.0 mi North 5.8 mph - N/A   Mist
2:15 PM 51.8 °F - 48.2 °F 88% 30.16 in 4.0 mi NNE 5.8 mph 16.1 mph N/A   Mist
2:35 PM 50.0 °F - 48.2 °F 94% 30.17 in 5.0 mi NNE 9.2 mph - 0.01 in Rain Light Rain
3:15 PM 50.0 °F - 48.2 °F 94% 30.16 in 7.0 mi NNE 9.2 mph 19.6 mph 0.02 in Rain Light Rain
3:35 PM 50.0 °F - 48.2 °F 94% 30.16 in 10.0 mi North 9.2 mph 17.3 mph 0.02 in Rain Light Rain
3:55 PM 50.0 °F - 46.4 °F 87% 30.17 in 7.0 mi NE 9.2 mph - 0.02 in   Unknown
4:15 PM 50.0 °F - 46.4 °F 87% 30.18 in 5.0 mi NE 6.9 mph - N/A   Mist
4:35 PM 50.0 °F - 46.4 °F 87% 30.18 in 7.0 mi NNE 8.1 mph - N/A Rain Rain
4:55 PM 50.0 °F - 46.4 °F 87% 30.17 in 10.0 mi NE 9.2 mph - 0.01 in Rain Rain
5:15 PM 48.2 °F - 46.4 °F 93% 30.19 in 10.0 mi NNE 6.9 mph - N/A Rain Light Rain
5:35 PM 48.2 °F - 46.4 °F 93% 30.22 in 7.0 mi NE 6.9 mph - 0.03 in Rain Rain
5:55 PM 48.2 °F - 46.4 °F 93% 30.21 in 7.0 mi North 8.1 mph - 0.07 in Rain Light Rain
6:15 PM 48.2 °F - 46.4 °F 93% 30.19 in 10.0 mi NNE 9.2 mph 17.3 mph 0.01 in Rain Light Rain
6:35 PM 48.2 °F - 44.6 °F 87% 30.18 in 10.0 mi NE 13.8 mph 19.6 mph 0.02 in Rain Light Rain
6:55 PM 48.2 °F - 44.6 °F 87% 30.18 in 7.0 mi NNE 11.5 mph - 0.02 in   Unknown
7:15 PM 48.2 °F - 44.6 °F 87% 30.18 in 10.0 mi NE 10.4 mph 19.6 mph N/A Rain Light Rain
7:35 PM 48.2 °F - 44.6 °F 87% 30.18 in 10.0 mi NE 9.2 mph 17.3 mph N/A   Unknown
7:55 PM 46.4 °F 40.7 °F 44.6 °F 93% 30.18 in 10.0 mi NE 12.7 mph 16.1 mph 0.01 in Rain Light Rain
8:15 PM 46.4 °F 43.5 °F 44.6 °F 93% 30.20 in 10.0 mi NNE 5.8 mph - 0.01 in Rain Rain
8:55 PM 46.4 °F 41.9 °F 44.6 °F 93% 30.21 in 7.0 mi NE 9.2 mph - 0.09 in Rain Light Rain
9:15 PM 46.4 °F 40.7 °F 44.6 °F 93% 30.20 in 10.0 mi NE 12.7 mph 16.1 mph 0.03 in Rain Light Rain
9:35 PM 46.4 °F 40.7 °F 42.8 °F 87% 30.18 in 10.0 mi NE 12.7 mph - 0.04 in Rain Light Rain
9:55 PM 46.4 °F 40.4 °F 42.8 °F 87% 30.16 in 10.0 mi NE 13.8 mph 18.4 mph 0.05 in Rain Light Rain
10:15 PM 46.4 °F 42.9 °F 42.8 °F 87% 30.18 in 10.0 mi ENE 6.9 mph 19.6 mph 0.01 in Rain Light Rain
10:35 PM 46.4 °F 41.5 °F 42.8 °F 87% 30.18 in 10.0 mi ENE 10.4 mph - 0.03 in Rain Light Rain
10:55 PM 44.6 °F 38.4 °F 42.8 °F 93% 30.13 in 10.0 mi ENE 12.7 mph - 0.07 in Rain Light Rain
11:15 PM 44.6 °F 41.4 °F 42.8 °F 93% 30.19 in 10.0 mi NNE 5.8 mph - 0.01 in Rain Light Rain
11:35 PM 44.6 °F 42.2 °F 42.8 °F 93% 30.21 in 10.0 mi NE 4.6 mph - 0.02 in Rain Rain
11:55 PM 44.6 °F 41.4 °F 42.8 °F 93% 30.18 in 10.0 mi North 5.8 mph - 0.02 in Rain Light Rain